Regional Weather Roundup
Issued by NWS Sioux Falls, SD

Home | Current Version | Previous Version | Graphics & Text | Print | Product List | Glossary On
Versions: 1 2 3 4 5 6 7 8 9 10 11 12 13 14 15 16 17 18 19 20 21 22 23 24 25 26 27 28 29 30 31 32 33 34 35 36 37 38 39 40 41 42 43 44 45 46 47 48 49 50
000
ASUS43 KFSD 221202
RWRFSD

WEATHER ROUNDUP FOR SE SOUTH DAKOTA/SW MINNESOTA/NW IOWA
NATIONAL WEATHER SERVICE SIOUX FALLS SD
700 AM CDT FRI AUG 22 2014

NOTE: "FAIR" INDICATES FEW OR NO CLOUDS BELOW 12,000 FEET WITH NO
SIGNIFICANT WEATHER AND OR OBSTRUCTIONS TO VISIBILITY.


SDZ038>040-050-052>070-221300-
SOUTHEAST SOUTH DAKOTA

CITY           SKY/WX    TMP DP  RH WIND       PRES   REMARKS
CHAMBERLAIN    PTCLDY    64  63  96 N6        29.98R
6HR MIN TEMP:  62; 6HR MAX TEMP:  67;

HURON          MOCLDY    60  60 100 N3        29.97R FOG
6HR MIN TEMP:  57; 6HR MAX TEMP:  64;

MADISON        FOG       59  59 100 N3        29.96S VSB<1/4
MITCHELL       FOG       62  62 100 NW5       29.94S VSB<1/4
6HR MIN TEMP:  61; 6HR MAX TEMP:  69;

SIOUX FALLS    PTCLDY    64  63  96 MISG      29.93S FOG
6HR MIN TEMP:  63; 6HR MAX TEMP:  70; 6HR PCP: TRACE;

WINNER         FAIR      64  61  90 NE3       29.98R
YANKTON        CLEAR     64  63  94 NW6       29.92S
$$

MNZ071-072-080-081-089-090-097-098-221300-
SOUTHWEST MINNESOTA

CITY           SKY/WX    TMP DP  RH WIND       PRES   REMARKS
FAIRMONT       CLOUDY    70  66  88 MISG      29.92R VSB<1/4
JACKSON        FOG       70  68  94 CALM      29.94R VSB<1/4
LUVERNE        CLEAR     64  61  88 CALM      29.94S FOG
MARSHALL       CLOUDY    66  63  88 CALM      29.93S
6HR MIN TEMP:  63; 6HR MAX TEMP:  68;

MONTEVIDEO     FOG       70  70 100 SE3       29.95R VSB 1/4
PIPESTONE      MOCLDY    66  64  94 E3        29.95S FOG
REDWOOD FALLS  FOG       71  71 100 CALM      29.93R VSB 1/4
TRACY          FOG       68  67  97 CALM      29.95R VSB 3/4
WINDOM         FOG       70  66  88 N5        29.94R VSB 1/4
WORTHINGTON    CLEAR     64   9  11 N7        29.95S
$$

IAZ001>003-012>014-020>022-031-032-NEZ013-014-SDZ071-221300-
NORTHWEST IOWA

CITY           SKY/WX    TMP DP  RH WIND       PRES   REMARKS
CHEROKEE       CLEAR     70  70 100 N3        29.90S
DENISON        PTCLDY    72  72 100 CALM      29.89R FOG
ESTHERVILLE    FOG       68  68 100 N5        29.92R VSB<1/4
LE MARS        CLEAR     66  66 100 CALM      29.92R FOG
ORANGE CITY    CLEAR     73  66  78 CALM      29.92S
SHELDON        CLEAR     64  64 100 N6        29.91S FOG
SIOUX CITY     CLEAR     73  70  90 N5        29.89F
6HR MIN TEMP:  73; 6HR MAX TEMP:  78;

SPENCER        CLEAR     65  64  97 N3        29.92R FOG
6HR MIN TEMP:  65; 6HR MAX TEMP:  71;

STORM LAKE     FOG       72  72 100 N6        29.92R VSB 3/4
$$

ABBREVIATIONS USED IN REMARKS
   TC - TEMPERATURE IN CELSIUS
  WCI - WIND CHILL INDEX
   HX - HEAT INDEX
  VSB - VISIBILITY



USA.gov is the U.S. government's official web portal to all federal, state and local government web resources and services.